COSMOS 860 COOLANT

Satellite information

Favourite Embed

Satellite Type and Status

DEBRISIN ORBIT

Key statistics

Satellite COSMOS 860 COOLANT at a glance.

Uptime

17955

Days in orbit

Revolutions

≈ 14.0

Per day

Orbit

LEO

Low Earth Orbit

Inclination

64.7

Latest

Satellite identification and parameters

Extended collection of information and parameters for COSMOS 860 COOLANT.

Object identification

Identified? True

Debris? False

Object name: COSMOS 860 COOLANT

International designator: 1976-103G

Object number (NORAD): 29194

Object ID (CCSDS): 29194

Country: COMMONWEALTH OF INDEPENDENT STATES (CIS)

Current information (Y/N): Y

RCS size: SMALL

Orbital parameters

Period: 102.864 minutes

Inclination: 64.6856 deg

SMA: 7272.278 km

Apoapsis: 938.524 km

Periapsis: 849.761 km

RAAN: 38.3339 deg

Eccentricy: 0.00610283

Argument of periapsis: 227.5609 deg

Mean anomaly: 132.0286 deg

Mean motion: 13.99900183 rev/day

Mean motion (dot): 0.00000962 rev/day2

B* drag term: 0.00070688255 1/REarth

Two-line elements (TLE)

Creation date: Dec. 14, 2025, 3:07 a.m.

Reference frame: TEME

Reference center: EARTH

Epoch: Dec. 13, 2025, 1:44 p.m. UTC

TLE line 0: 0 COSMOS 860 COOLANT

TLE line 1: 1 29194U 76103G 25347.57282471 .00000962 00000-0 70688-3 0 9998

TLE line 2: 2 29194 64.6856 38.3339 0061028 227.5609 132.0286 13.99900183145240

Live tracking on map

Real-time ground track for satellite COSMOS 860 COOLANT.

In-orbit conjunctions

A list of the most updated potential collisions computed for object COSMOS 860 COOLANT.

Target Orbit TCA Probability of collision Miss distance Type
COSMOS 1275 DEB LEO 2025-09-21 07:01:35 0.0001053081 305.0 (m) DEBRIS
IRIDIUM 33 DEB LEO 2025-07-25 11:20:55 0.0001482334 71.0 (m) DEBRIS

Associated space launch

Active radar satellite for ocean surveillance powered by a nuclear reactor.

COSMOS 860 COOLANT was lifted into orbit during the mission ‘Tsiklon-2 | US-A 12’, on board a Tsiklon-2 space rocket.

The launch took place on Oct. 17, 1976, 6:06 p.m. from 90.

For more information about the launch, click the button.

Launch to space Tsiklon-2 | US-A 12
Tsiklon-2 | US-A 12

Agency: N/A

Status: Launch Successful

Launch date: Oct. 17, 1976, 6:06 p.m. UTC

Rocket: Tsiklon-2

Launch pad: 90

Location: Baikonur Cosmodrome, Republic of Kazakhstan

...

Latest news about this satellite

There are no fresh news available about this satellite. Check back as we update our databases every day.


Newsletter sign-up

Weekly statistics, charts and insights to help you stay on top of the space industry.